SCP
-0 -0 -0 -0 -0 -0 -0 -0 -0 -0 -0 -0 -0 0 0 -0 -0 -0 -0 -0 -0 -0 -0 0 0 0 0 0 0 0 0 0 0 0 0 0 -0 0 0 0 0 0 0 0 -0
-0 -0 -0 -0 -0 -0 -0 -0 -0 -0 -0 -0 0 0 -0 0 0 -0 -0 -0 -0 0 -0 -0 0 0 0 0 0 0 0 0 0 0 0 0 -0 -0 -0 0 0 0 0 0 0
-0 -0 -0 -0 -0 -0 -0 0 -0 -0 -0 -0 -0 -0 0 0 0 -0 -0 -0 -0 0 -0 -0 -0 0 0 0 0 0 0 0 0 0 0 0 -0 -0 -0 0 -0 -0 0 0 0
-0 -0 -0 -0 -0 -0 -0 -0 -0 -0 -0 -0 -0 -0 0 0 0 -0 -0 -0 0 -0 -0 -0 -0 -0 0 0 0 0 0 0 0 0 0 0 -0 -0 -0 -0 0 0 -0 0 0
-0 -0 -0 -0 -0 -0 -0 -0 -0 -0 -0 -0 -0 0 0 0 -0 -0 -0 0 -0 -0 -0 -0 -0 -0 -0 -0 0 0 0 0 0 0 0 0 0 0 -0 -0 0 0 0 -0 0
-0 -0 -0 -0 -0 -0 -0 -0 -0 -0 -0 -0 0 0 -0 0 0 0 -0 -0 -0 -0 -0 -0 -0 -0 -0 -0 -0 -0 -0 0 0 0 0 0 0 0 0 0 0 0 0 0 0
-0 -0 -0 -0 -0 -0 -0 -0 -0 -0 0 0 0 0 0 0 -0 -0 -0 -0 -0 -0 -0 -0 -0 -0 -0 -0 -0 -0 -0 -0 0 -0 0 0 -0 0 0 0 0 0 0 0 0
-0 -0 -0 -0 -0 -0 -0 -0 -0 -0 -0 0 0 0 -0 0 -0 0 -0 -0 -0 -0 -0 -0 -0 -0 -0 -0 -0 -0 -0 -0 -0 -0 0 0 0 0 0 0 0 0 0 0 0
-0 -0 -0 -0 -0 -0 -0 0 0 0 0 0 0 0 -0 -0 0 0 0 -0 -0 -0 -0 -0 -0 -0 -0 -0 -0 -0 -0 -0 -0 -0 0 0 0 0 0 0 0 0 0 0 0
0 0 0 0 -0 -0 0 0 0 0 0 0 0 0 0 0 0 0 -0 -0 -0 -0 -0 -0 -0 -0 -0 -0 -0 -0 -0 -0 -0 -0 0 -0 0 0 0 0 0 0 0 0 0
0 0 0 0 0 0 0 0 0 0 0 0 0 0 -0 -0 -0 0 0 -0 -0 0 -0 -0 -0 -0 -0 -0 -0 -0 -0 0 0 0 0 0 0 0 -0 0 0 0 0 0 0
0 0 0 0 0 0 0 0 0 0 0 0 0 0 -0 0 0 0 0 0 0 0 -0 -0 -0 -0 -0 -0 -0 -0 -0 -0 0 0 0 0 0 0 0 0 0 0 0 0 -0
0 0 0 0 0 0 0 0 -0 0 0 0 0 0 0 0 0 0 0 0 0 0 0 0 -0 -0 0 0 0 0 0 0 0 0 0 0 0 0 0 0 0 0 0 0 0
0 0 0 0 0 0 0 -0 -0 0 0 0 0 0 0 0 0 -0 0 0 0 0 0 0 0 0 0 0 0 0 0 0 0 0 0 0 0 0 0 0 0 0 0 0 0
0 0 0 0 0 0 0 0 0 0 0 0 0 0 0 0 -0 0 -0 0 0 0 0 0 0 0 0 0 0 0 0 0 0 0 0 0 0 0 0 0 0 0 0 0 0
0 0 0 0 0 0 0 0 0 0 0 0 0 0 0 0 0 -0 0 0 0 0 0 0 0 0 0 0 0 0 0 0 0 0 0 0 0 0 0 0 0 0 0 0 0
0 0 0 0 0 0 0 0 0 0 0 0 0 0 0 0 0 0 0 0 0 0 0 0 0 0 0 0 0 0 0 0 0 0 0 0 0 0 0 0 0 0 0 0 -0
0 0 0 0 0 0 0 0 0 0 0 0 0 0 0 0 0 0 0 0 0 0 0 0 0 0 0 0 0 0 0 0 0 0 0 0 0 0 0 0 0 0 0 0 -0
0 0 0 0 0 0 0 0 0 0 0 0 0 0 0 0 0 0 0 0 0 0 0 0 0 0 0 0 0 0 0 0 0 0 0 0 0 0 0 0 0 0 0 0 0
0 0 0 0 0 0 0 0 0 0 0 0 0 0 0 0 0 0 0 0 0 0 0 0 0 0 0 0 0 0 0 0 0 0 0 0 0 0 0 0 0 0 0 0 0
0 0 0 0 0 0 0 0 0 0 0 0 0 0 0 0 0 0 0 0 0 0 0 0 0 0 0 0 0 0 0 0 0 0 0 0 0 0 0 0 0 0 0 0 0
0 0 0 0 0 0 0 0 0 0 0 0 0 0 0 0 0 0 0 0 0 0 0 0 0 0 0 0 0 0 0 0 0 0 0 0 0 0 0 0 0 0 0 0 0
0 0 0 0 0 0 0 0 0 0 0 0 0 0 0 0 0 0 0 0 0 0 0 0 0 0 0 0 0 0 0 0 0 0 0 0 0 0 0 0 0 0 0 0 0
0 0 0 0 0 0 0 0 0 0 0 0 0 0 0 0 0 0 0 0 0 0 0 0 0 0 0 0 0 0 0 0 0 0 0 0 0 0 0 0 0 0 0 0 0
0 0 0 0 0 0 0 0 0 0 0 0 0 0 0 0 0 0 0 0 0 0 0 0 0 0 0 0 0 0 0 0 0 0 0 0 0 0 0 0 0 0 0 0 0
0 0 0 0 0 0 0 0 0 0 0 0 0 0 0 0 0 0 0 0 0 0 0 0 0 0 0 0 0 0 0 0 0 0 0 0 0 0 0 0 0 0 0 0 0
0 0 0 0 0 0 0 0 0 0 0 0 0 0 0 0 0 0 0 0 0 0 0 0 0 0 0 0 0 0 0 0 0 0 0 0 0 0 0 0 0 0 0 0 0
Wind_Speed_500mb
28 31 29 32 34 40 41 44 44 38 36 31 23 24 44 62 54 39 64 42 46 46 40 27 7 7 3 10 8 6 6 2 5 4 9 43 26 34 41 35 26 22 33 44 51
27 30 31 32 35 39 40 43 43 32 32 37 24 18 17 33 59 73 50 43 43 47 44 38 22 14 12 9 10 10 5 3 8 7 8 33 24 34 24 42 50 65 54 40 45
25 28 30 31 32 35 33 35 47 36 31 48 51 20 12 2 25 57 51 48 48 49 38 37 11 14 15 16 19 10 6 7 11 31 36 27 31 40 18 13 27 31 50 63 53
23 26 27 28 27 29 27 24 35 52 40 31 43 48 15 5 11 45 46 47 46 48 38 47 21 10 12 10 17 8 28 26 28 40 37 32 41 30 35 31 66 72 71 71 64
19 22 24 24 24 22 30 19 26 37 42 54 40 24 38 50 35 36 36 39 39 47 58 39 49 15 10 5 11 11 14 30 40 48 49 41 39 40 44 49 57 55 57 60 63
17 19 21 21 19 20 19 28 17 19 28 39 40 57 55 36 39 33 31 33 36 41 47 64 27 22 18 8 13 11 16 31 24 46 50 45 45 28 24 64 69 64 56 67 65
11 13 15 17 16 18 23 19 15 22 8 15 28 30 72 44 34 27 25 34 33 34 36 33 49 30 6 7 19 12 8 16 23 34 15 62 13 9 66 89 73 69 73 64 54
5 10 13 14 15 13 12 28 17 18 26 17 12 25 25 41 31 31 27 22 23 24 31 40 35 26 13 6 11 12 12 12 16 30 22 25 12 42 77 84 81 73 73 82 71
1 6 10 13 17 17 17 11 13 30 22 23 22 15 11 35 50 36 41 32 11 23 23 14 14 25 40 8 9 15 5 8 17 23 13 18 30 35 66 68 66 75 71 73 77
2 6 11 15 16 19 17 8 10 27 9 6 21 13 20 28 44 43 18 37 22 5 9 22 16 8 10 16 10 11 8 11 14 13 12 33 34 44 58 60 66 65 64 66 71
5 7 9 14 15 19 18 6 3 2 39 24 18 10 14 25 25 48 27 20 23 24 9 14 18 17 12 9 6 6 5 12 10 17 22 16 44 46 57 58 55 53 68 64 62
6 8 9 13 15 20 14 6 11 10 13 16 18 18 17 26 18 50 37 16 27 11 14 11 13 10 8 6 4 2 7 11 23 18 14 31 58 45 37 33 48 67 66 39 39
9 10 10 12 12 15 21 18 10 7 6 6 12 12 12 15 11 31 37 14 12 14 13 9 2 13 8 10 16 6 4 11 18 28 21 15 18 11 20 38 38 39 51 49 45
9 10 10 10 6 16 17 15 8 5 10 8 5 8 9 10 4 22 22 11 9 4 4 2 5 10 10 8 8 10 4 18 28 25 11 14 13 12 15 30 15 28 49 66 57
10 10 6 5 6 11 10 11 3 2 9 2 6 8 9 9 13 11 14 7 4 7 3 7 7 10 6 5 5 13 20 22 17 16 9 8 4 16 21 21 12 29 47 46 56
10 10 6 6 5 6 10 9 2 12 10 6 6 12 6 11 11 21 10 9 1 1 6 3 4 6 4 5 1 16 15 13 5 6 5 7 5 12 9 12 22 31 41 31 55
15 9 5 6 3 6 9 5 10 8 8 8 2 7 4 8 8 15 10 12 8 12 13 13 3 4 4 7 6 18 12 9 13 10 10 2 10 23 28 25 14 33 22 26 47
12 9 7 9 5 3 5 10 7 4 13 1 3 5 6 8 3 12 5 6 1 7 6 7 12 7 8 7 3 8 5 7 8 7 17 29 13 13 15 46 36 19 20 42 57
15 12 12 12 9 4 4 7 14 13 10 14 5 9 10 5 2 2 2 8 6 7 8 6 10 5 2 3 7 2 6 5 2 6 7 9 12 23 16 16 29 33 31 56 64
17 13 18 13 13 11 10 10 7 4 9 5 11 5 8 8 2 6 3 5 3 5 2 6 9 1 4 2 1 6 6 5 5 7 13 14 15 17 23 28 22 24 47 60 83
16 9 11 19 17 11 8 15 7 10 6 7 9 6 7 7 6 4 8 8 7 1 9 7 6 8 7 4 12 5 2 5 5 8 6 11 20 14 18 18 25 33 53 66 76
13 6 13 25 7 2 7 13 3 8 10 2 6 6 13 12 8 4 9 11 18 17 8 8 7 9 15 7 3 5 11 10 8 9 7 7 22 12 18 19 27 45 71 80 75
10 10 17 34 7 6 6 6 10 9 11 7 10 6 3 11 2 6 8 4 23 18 12 11 2 9 10 9 8 5 8 7 4 3 14 7 18 12 7 19 59 55 71 76 80
16 3 12 27 12 11 8 9 7 18 6 8 8 9 6 7 5 7 8 7 22 21 10 20 7 13 14 12 8 3 10 15 13 9 10 34 53 67 53 40 55 75 79 81 79
28 16 16 9 15 17 10 10 10 11 14 19 5 12 15 7 7 10 9 4 15 17 16 9 11 12 35 26 24 42 44 33 38 45 21 45 29 51 47 45 69 79 82 78 82
27 18 18 9 12 22 14 15 23 11 20 11 12 20 15 15 19 18 13 9 11 8 14 5 7 2 12 16 23 29 31 33 39 40 47 58 62 67 84 67 58 63 67 76 80
70 38 18 17 17 11 12 16 28 28 31 16 33 14 19 36 33 8 15 6 9 17 16 11 5 6 12 8 22 17 17 19 9 18 15 19 36 33 27 30 47 69 68 67 78
Wind_Direction_500mb
67 65 54 53 46 38 36 41 39 34 32 31 49 83 74 56 53 70 42 12 0 4 359 355 5 61 106 113 106 88 71 182 290 321 297 352 1 328 323 301 312 315 305 304 293
66 61 58 50 49 44 47 45 42 42 44 26 29 144 147 57 44 46 30 21 14 9 9 9 30 81 83 54 51 78 118 22 48 355 330 321 330 325 333 314 305 309 314 314 295
66 63 58 53 51 51 57 58 52 63 60 41 41 119 153 77 32 16 24 23 18 16 15 17 16 69 68 50 20 7 99 345 319 336 329 308 309 320 318 316 305 324 309 318 318
63 60 60 58 54 56 60 69 59 60 60 56 56 62 54 96 61 4 17 20 23 23 27 35 51 68 71 62 4 49 20 6 325 325 323 310 308 297 280 275 292 293 296 299 299
69 61 56 57 52 52 51 68 56 58 59 59 56 69 72 69 32 16 22 18 27 29 37 33 41 48 72 58 73 62 343 341 357 3 343 331 322 297 283 307 300 296 292 297 292
62 54 48 49 50 45 47 47 46 38 54 53 53 52 57 65 22 16 14 24 30 34 54 50 28 57 74 64 61 330 339 343 1 1 343 349 322 308 352 347 341 333 317 291 285
74 68 55 49 46 45 40 35 27 11 2 26 38 41 47 43 31 21 19 21 34 44 56 52 44 53 355 51 7 352 48 344 359 347 332 348 3 53 342 336 333 333 323 318 305
67 63 52 43 37 33 32 29 12 27 44 28 20 49 65 37 31 50 48 51 52 60 72 64 52 39 25 18 26 30 59 3 306 340 344 19 314 330 325 328 320 320 316 312 304
31 41 34 28 19 8 353 306 360 359 282 22 35 72 53 24 30 31 28 28 55 71 59 39 31 53 27 54 36 21 338 328 307 317 321 28 309 307 312 310 306 307 311 305 302
317 12 18 19 16 2 351 317 298 5 17 9 29 74 31 359 19 19 1 31 45 113 43 41 47 84 33 34 35 315 356 297 282 306 339 317 296 304 303 300 293 294 305 311 298
329 346 5 10 16 10 7 357 19 97 56 67 45 45 358 354 15 19 15 30 34 44 39 20 49 30 352 47 156 212 232 291 271 307 328 319 294 293 299 296 296 302 307 309 301
329 330 345 360 11 16 12 54 64 126 71 53 40 34 13 359 353 12 17 40 31 21 354 27 48 312 308 38 39 30 334 310 289 296 316 310 299 296 286 287 302 305 308 330 333
313 320 330 353 8 9 33 58 80 135 81 25 21 6 2 358 12 358 12 18 26 28 6 54 314 339 29 13 7 320 260 307 291 317 293 341 278 328 300 307 340 348 357 15 6
298 311 316 341 358 10 28 36 54 119 71 291 15 21 351 357 33 7 17 27 34 21 281 189 335 11 24 36 19 317 347 312 310 330 315 57 289 295 305 321 309 337 354 358 10
295 303 313 332 13 15 11 18 55 93 23 309 340 340 356 35 329 2 6 47 153 277 167 240 19 23 39 353 5 266 321 298 304 301 354 2 336 280 320 316 313 321 336 347 360
284 294 294 307 345 6 1 10 49 42 256 316 323 352 18 18 350 331 4 30 339 211 336 283 309 157 209 302 68 315 322 328 28 11 356 238 64 282 285 273 311 311 327 341 347
271 302 263 247 276 330 351 8 32 132 352 278 186 37 81 338 348 16 24 10 24 18 359 327 5 320 44 357 46 25 26 349 359 6 257 318 351 256 288 295 273 298 302 333 341
262 281 249 227 227 292 360 49 93 219 224 337 155 89 166 13 25 339 57 17 357 72 74 44 331 18 7 88 338 2 73 121 289 302 288 301 227 257 244 298 313 299 306 320 331
240 265 256 223 215 220 60 58 214 203 158 148 83 62 319 357 220 343 77 210 248 159 126 75 279 329 10 112 122 360 45 170 227 289 286 266 281 288 275 292 322 322 312 319 325
237 259 254 222 198 175 84 249 242 200 126 137 169 141 199 259 46 62 23 221 262 336 334 233 329 64 285 36 291 162 154 37 24 345 296 284 280 248 298 304 314 318 319 320 320
231 262 219 200 181 160 167 221 246 236 187 159 195 142 206 212 164 226 223 277 204 54 54 131 99 288 20 183 165 133 101 83 130 158 242 307 283 225 254 279 293 299 309 309 308
202 274 196 173 182 339 165 189 231 186 202 201 136 143 182 165 163 219 228 223 180 165 159 203 156 274 237 262 331 148 204 155 129 255 227 265 265 251 260 275 290 305 310 310 308
222 227 195 182 165 244 283 245 199 181 200 167 187 180 167 180 30 190 215 252 187 175 166 185 278 324 353 1 351 166 195 215 85 134 204 236 263 216 234 298 306 304 305 303 305
184 181 205 199 218 148 162 234 203 192 189 179 153 123 128 184 176 203 233 232 201 208 199 166 177 197 219 225 132 250 199 194 166 241 239 238 273 286 293 303 306 307 305 303 302
206 222 189 193 231 186 188 163 149 186 200 196 207 200 168 156 175 225 206 240 203 213 191 168 226 206 254 273 269 261 259 240 227 233 237 263 265 272 288 295 295 298 299 307 310
189 180 186 199 160 155 187 213 182 183 153 223 210 188 184 174 187 191 168 196 205 153 162 183 266 133 260 266 255 265 254 243 241 242 248 256 268 271 278 283 286 296 306 310 310
209 206 191 176 162 139 209 198 201 156 210 197 200 133 195 233 221 128 186 216 194 167 185 167 167 19 272 344 310 284 234 175 200 199 205 213 243 271 289 291 298 308 308 311 313
Wind_Speed_850mb
28 31 29 32 34 40 41 44 44 38 36 31 23 24 44 62 54 39 64 42 46 46 40 27 7 7 3 10 8 6 6 2 5 4 9 43 26 34 41 35 26 22 33 44 51
27 30 31 32 35 39 40 43 43 32 32 37 24 18 17 33 59 73 50 43 43 47 44 38 22 14 12 9 10 10 5 3 8 7 8 33 24 34 24 42 50 65 54 40 45
25 28 30 31 32 35 33 35 47 36 31 48 51 20 12 2 25 57 51 48 48 49 38 37 11 14 15 16 19 10 6 7 11 31 36 27 31 40 18 13 27 31 50 63 53
23 26 27 28 27 29 27 24 35 52 40 31 43 48 15 5 11 45 46 47 46 48 38 47 21 10 12 10 17 8 28 26 28 40 37 32 41 30 35 31 66 72 71 71 64
19 22 24 24 24 22 30 19 26 37 42 54 40 24 38 50 35 36 36 39 39 47 58 39 49 15 10 5 11 11 14 30 40 48 49 41 39 40 44 49 57 55 57 60 63
17 19 21 21 19 20 19 28 17 19 28 39 40 57 55 36 39 33 31 33 36 41 47 64 27 22 18 8 13 11 16 31 24 46 50 45 45 28 24 64 69 64 56 67 65
11 13 15 17 16 18 23 19 15 22 8 15 28 30 72 44 34 27 25 34 33 34 36 33 49 30 6 7 19 12 8 16 23 34 15 62 13 9 66 89 73 69 73 64 54
5 10 13 14 15 13 12 28 17 18 26 17 12 25 25 41 31 31 27 22 23 24 31 40 35 26 13 6 11 12 12 12 16 30 22 25 12 42 77 84 81 73 73 82 71
1 6 10 13 17 17 17 11 13 30 22 23 22 15 11 35 50 36 41 32 11 23 23 14 14 25 40 8 9 15 5 8 17 23 13 18 30 35 66 68 66 75 71 73 77
2 6 11 15 16 19 17 8 10 27 9 6 21 13 20 28 44 43 18 37 22 5 9 22 16 8 10 16 10 11 8 11 14 13 12 33 34 44 58 60 66 65 64 66 71
5 7 9 14 15 19 18 6 3 2 39 24 18 10 14 25 25 48 27 20 23 24 9 14 18 17 12 9 6 6 5 12 10 17 22 16 44 46 57 58 55 53 68 64 62
6 8 9 13 15 20 14 6 11 10 13 16 18 18 17 26 18 50 37 16 27 11 14 11 13 10 8 6 4 2 7 11 23 18 14 31 58 45 37 33 48 67 66 39 39
9 10 10 12 12 15 21 18 10 7 6 6 12 12 12 15 11 31 37 14 12 14 13 9 2 13 8 10 16 6 4 11 18 28 21 15 18 11 20 38 38 39 51 49 45
9 10 10 10 6 16 17 15 8 5 10 8 5 8 9 10 4 22 22 11 9 4 4 2 5 10 10 8 8 10 4 18 28 25 11 14 13 12 15 30 15 28 49 66 57
10 10 6 5 6 11 10 11 3 2 9 2 6 8 9 9 13 11 14 7 4 7 3 7 7 10 6 5 5 13 20 22 17 16 9 8 4 16 21 21 12 29 47 46 56
10 10 6 6 5 6 10 9 2 12 10 6 6 12 6 11 11 21 10 9 1 1 6 3 4 6 4 5 1 16 15 13 5 6 5 7 5 12 9 12 22 31 41 31 55
15 9 5 6 3 6 9 5 10 8 8 8 2 7 4 8 8 15 10 12 8 12 13 13 3 4 4 7 6 18 12 9 13 10 10 2 10 23 28 25 14 33 22 26 47
12 9 7 9 5 3 5 10 7 4 13 1 3 5 6 8 3 12 5 6 1 7 6 7 12 7 8 7 3 8 5 7 8 7 17 29 13 13 15 46 36 19 20 42 57
15 12 12 12 9 4 4 7 14 13 10 14 5 9 10 5 2 2 2 8 6 7 8 6 10 5 2 3 7 2 6 5 2 6 7 9 12 23 16 16 29 33 31 56 64
17 13 18 13 13 11 10 10 7 4 9 5 11 5 8 8 2 6 3 5 3 5 2 6 9 1 4 2 1 6 6 5 5 7 13 14 15 17 23 28 22 24 47 60 83
16 9 11 19 17 11 8 15 7 10 6 7 9 6 7 7 6 4 8 8 7 1 9 7 6 8 7 4 12 5 2 5 5 8 6 11 20 14 18 18 25 33 53 66 76
13 6 13 25 7 2 7 13 3 8 10 2 6 6 13 12 8 4 9 11 18 17 8 8 7 9 15 7 3 5 11 10 8 9 7 7 22 12 18 19 27 45 71 80 75
10 10 17 34 7 6 6 6 10 9 11 7 10 6 3 11 2 6 8 4 23 18 12 11 2 9 10 9 8 5 8 7 4 3 14 7 18 12 7 19 59 55 71 76 80
16 3 12 27 12 11 8 9 7 18 6 8 8 9 6 7 5 7 8 7 22 21 10 20 7 13 14 12 8 3 10 15 13 9 10 34 53 67 53 40 55 75 79 81 79
28 16 16 9 15 17 10 10 10 11 14 19 5 12 15 7 7 10 9 4 15 17 16 9 11 12 35 26 24 42 44 33 38 45 21 45 29 51 47 45 69 79 82 78 82
27 18 18 9 12 22 14 15 23 11 20 11 12 20 15 15 19 18 13 9 11 8 14 5 7 2 12 16 23 29 31 33 39 40 47 58 62 67 84 67 58 63 67 76 80
70 38 18 17 17 11 12 16 28 28 31 16 33 14 19 36 33 8 15 6 9 17 16 11 5 6 12 8 22 17 17 19 9 18 15 19 36 33 27 30 47 69 68 67 78
Wind_Direction_850mb
67 65 54 53 46 38 36 41 39 34 32 31 49 83 74 56 53 70 42 12 0 4 359 355 5 61 106 113 106 88 71 182 290 321 297 352 1 328 323 301 312 315 305 304 293
66 61 58 50 49 44 47 45 42 42 44 26 29 144 147 57 44 46 30 21 14 9 9 9 30 81 83 54 51 78 118 22 48 355 330 321 330 325 333 314 305 309 314 314 295
66 63 58 53 51 51 57 58 52 63 60 41 41 119 153 77 32 16 24 23 18 16 15 17 16 69 68 50 20 7 99 345 319 336 329 308 309 320 318 316 305 324 309 318 318
63 60 60 58 54 56 60 69 59 60 60 56 56 62 54 96 61 4 17 20 23 23 27 35 51 68 71 62 4 49 20 6 325 325 323 310 308 297 280 275 292 293 296 299 299
69 61 56 57 52 52 51 68 56 58 59 59 56 69 72 69 32 16 22 18 27 29 37 33 41 48 72 58 73 62 343 341 357 3 343 331 322 297 283 307 300 296 292 297 292
62 54 48 49 50 45 47 47 46 38 54 53 53 52 57 65 22 16 14 24 30 34 54 50 28 57 74 64 61 330 339 343 1 1 343 349 322 308 352 347 341 333 317 291 285
74 68 55 49 46 45 40 35 27 11 2 26 38 41 47 43 31 21 19 21 34 44 56 52 44 53 355 51 7 352 48 344 359 347 332 348 3 53 342 336 333 333 323 318 305
67 63 52 43 37 33 32 29 12 27 44 28 20 49 65 37 31 50 48 51 52 60 72 64 52 39 25 18 26 30 59 3 306 340 344 19 314 330 325 328 320 320 316 312 304
31 41 34 28 19 8 353 306 360 359 282 22 35 72 53 24 30 31 28 28 55 71 59 39 31 53 27 54 36 21 338 328 307 317 321 28 309 307 312 310 306 307 311 305 302
317 12 18 19 16 2 351 317 298 5 17 9 29 74 31 359 19 19 1 31 45 113 43 41 47 84 33 34 35 315 356 297 282 306 339 317 296 304 303 300 293 294 305 311 298
329 346 5 10 16 10 7 357 19 97 56 67 45 45 358 354 15 19 15 30 34 44 39 20 49 30 352 47 156 212 232 291 271 307 328 319 294 293 299 296 296 302 307 309 301
329 330 345 360 11 16 12 54 64 126 71 53 40 34 13 359 353 12 17 40 31 21 354 27 48 312 308 38 39 30 334 310 289 296 316 310 299 296 286 287 302 305 308 330 333
313 320 330 353 8 9 33 58 80 135 81 25 21 6 2 358 12 358 12 18 26 28 6 54 314 339 29 13 7 320 260 307 291 317 293 341 278 328 300 307 340 348 357 15 6
298 311 316 341 358 10 28 36 54 119 71 291 15 21 351 357 33 7 17 27 34 21 281 189 335 11 24 36 19 317 347 312 310 330 315 57 289 295 305 321 309 337 354 358 10
295 303 313 332 13 15 11 18 55 93 23 309 340 340 356 35 329 2 6 47 153 277 167 240 19 23 39 353 5 266 321 298 304 301 354 2 336 280 320 316 313 321 336 347 360
284 294 294 307 345 6 1 10 49 42 256 316 323 352 18 18 350 331 4 30 339 211 336 283 309 157 209 302 68 315 322 328 28 11 356 238 64 282 285 273 311 311 327 341 347
271 302 263 247 276 330 351 8 32 132 352 278 186 37 81 338 348 16 24 10 24 18 359 327 5 320 44 357 46 25 26 349 359 6 257 318 351 256 288 295 273 298 302 333 341
262 281 249 227 227 292 360 49 93 219 224 337 155 89 166 13 25 339 57 17 357 72 74 44 331 18 7 88 338 2 73 121 289 302 288 301 227 257 244 298 313 299 306 320 331
240 265 256 223 215 220 60 58 214 203 158 148 83 62 319 357 220 343 77 210 248 159 126 75 279 329 10 112 122 360 45 170 227 289 286 266 281 288 275 292 322 322 312 319 325
237 259 254 222 198 175 84 249 242 200 126 137 169 141 199 259 46 62 23 221 262 336 334 233 329 64 285 36 291 162 154 37 24 345 296 284 280 248 298 304 314 318 319 320 320
231 262 219 200 181 160 167 221 246 236 187 159 195 142 206 212 164 226 223 277 204 54 54 131 99 288 20 183 165 133 101 83 130 158 242 307 283 225 254 279 293 299 309 309 308
202 274 196 173 182 339 165 189 231 186 202 201 136 143 182 165 163 219 228 223 180 165 159 203 156 274 237 262 331 148 204 155 129 255 227 265 265 251 260 275 290 305 310 310 308
222 227 195 182 165 244 283 245 199 181 200 167 187 180 167 180 30 190 215 252 187 175 166 185 278 324 353 1 351 166 195 215 85 134 204 236 263 216 234 298 306 304 305 303 305
184 181 205 199 218 148 162 234 203 192 189 179 153 123 128 184 176 203 233 232 201 208 199 166 177 197 219 225 132 250 199 194 166 241 239 238 273 286 293 303 306 307 305 303 302
206 222 189 193 231 186 188 163 149 186 200 196 207 200 168 156 175 225 206 240 203 213 191 168 226 206 254 273 269 261 259 240 227 233 237 263 265 272 288 295 295 298 299 307 310
189 180 186 199 160 155 187 213 182 183 153 223 210 188 184 174 187 191 168 196 205 153 162 183 266 133 260 266 255 265 254 243 241 242 248 256 268 271 278 283 286 296 306 310 310
209 206 191 176 162 139 209 198 201 156 210 197 200 133 195 233 221 128 186 216 194 167 185 167 167 19 272 344 310 284 234 175 200 199 205 213 243 271 289 291 298 308 308 311 313